Year,Month,Day,Hour,Minute,Value (Times are PST for temperature in C)
2014,05,18,00,00,10.80
2014,05,18,00,01,10.80
2014,05,18,00,03,10.80
2014,05,18,00,04,10.70
2014,05,18,00,05,10.70
2014,05,18,00,06,10.70
2014,05,18,00,07,10.70
2014,05,18,00,08,10.70
2014,05,18,00,10,10.70
2014,05,18,00,11,10.70
2014,05,18,00,12,10.70
2014,05,18,00,14,10.60
2014,05,18,00,15,10.60
2014,05,18,00,16,10.60
2014,05,18,00,17,10.60
2014,05,18,00,19,10.60
2014,05,18,00,20,10.60
2014,05,18,00,21,10.50
2014,05,18,00,22,10.50
2014,05,18,00,23,10.50
2014,05,18,00,25,10.50
2014,05,18,00,26,10.50
2014,05,18,00,28,10.50
2014,05,18,00,30,10.40
2014,05,18,00,31,10.40
2014,05,18,00,32,10.40
2014,05,18,00,33,10.40
2014,05,18,00,35,10.40
2014,05,18,00,36,10.40
2014,05,18,00,37,10.30
2014,05,18,00,38,10.30
2014,05,18,00,39,10.30
2014,05,18,00,40,10.30
2014,05,18,00,41,10.30
2014,05,18,00,42,10.30
2014,05,18,00,45,10.20
2014,05,18,00,47,10.20
2014,05,18,00,48,10.20
2014,05,18,00,51,10.20
2014,05,18,00,52,10.20
2014,05,18,00,53,10.20
2014,05,18,00,54,10.10
2014,05,18,00,56,10.10
2014,05,18,00,57,10.10
2014,05,18,00,58,10.10
2014,05,18,00,59,10.00
2014,05,18,01,00,10.00
2014,05,18,01,01,10.00
2014,05,18,01,03,9.90
2014,05,18,01,04,9.90
2014,05,18,01,05,9.90
2014,05,18,01,06,9.90
2014,05,18,01,07,9.90
2014,05,18,01,08,9.90
2014,05,18,01,09,9.80
2014,05,18,01,10,9.80
2014,05,18,01,11,9.80
2014,05,18,01,12,9.80
2014,05,18,01,13,9.80
2014,05,18,01,15,9.80
2014,05,18,01,16,9.80
2014,05,18,01,17,9.70
2014,05,18,01,18,9.70
2014,05,18,01,20,9.70
2014,05,18,01,21,9.70
2014,05,18,01,22,9.70
2014,05,18,01,23,9.70
2014,05,18,01,24,9.70
2014,05,18,01,25,9.60
2014,05,18,01,27,9.60
2014,05,18,01,28,9.60
2014,05,18,01,29,9.60
2014,05,18,01,30,9.60
2014,05,18,01,32,9.50
2014,05,18,01,34,9.40
2014,05,18,01,36,9.40
2014,05,18,01,38,9.40
2014,05,18,01,40,9.30
2014,05,18,01,41,9.30
2014,05,18,01,43,9.30
2014,05,18,01,44,9.30
2014,05,18,01,45,9.20
2014,05,18,01,46,9.20
2014,05,18,01,47,9.20
2014,05,18,01,49,9.20
2014,05,18,01,50,9.20
2014,05,18,01,51,9.10
2014,05,18,01,53,9.10
2014,05,18,01,55,9.10
2014,05,18,01,56,9.10
2014,05,18,01,57,9.10
2014,05,18,01,58,9.00
2014,05,18,01,59,9.00
2014,05,18,02,00,9.00
2014,05,18,02,01,8.90
2014,05,18,02,03,8.90
2014,05,18,02,04,8.90
2014,05,18,02,05,8.90
2014,05,18,02,06,8.90
2014,05,18,02,07,8.90
2014,05,18,02,08,8.80
2014,05,18,02,09,8.80
2014,05,18,02,10,8.80
2014,05,18,02,12,8.80
2014,05,18,02,13,8.80
2014,05,18,02,14,8.80
2014,05,18,02,15,8.80
2014,05,18,02,17,8.80
2014,05,18,02,19,8.80
2014,05,18,02,20,8.70
2014,05,18,02,22,8.70
2014,05,18,02,23,8.70
2014,05,18,02,24,8.70
2014,05,18,02,25,8.70
2014,05,18,02,26,8.70
2014,05,18,02,27,8.70
2014,05,18,02,28,8.70
2014,05,18,02,29,8.60
2014,05,18,02,30,8.60
2014,05,18,02,32,8.60
2014,05,18,02,34,8.60
2014,05,18,02,35,8.60
2014,05,18,02,37,8.50
2014,05,18,02,38,8.50
2014,05,18,02,39,8.50
2014,05,18,02,41,8.50
2014,05,18,02,42,8.50
2014,05,18,02,43,8.50
2014,05,18,02,44,8.50
2014,05,18,02,45,8.50
2014,05,18,02,46,8.50
2014,05,18,02,47,8.50
2014,05,18,02,48,8.50
2014,05,18,02,49,8.50
2014,05,18,02,50,8.50
2014,05,18,02,51,8.50
2014,05,18,02,53,8.40
2014,05,18,02,54,8.40
2014,05,18,02,55,8.40
2014,05,18,02,57,8.40
2014,05,18,02,58,8.40
2014,05,18,02,59,8.40
2014,05,18,03,00,8.40
2014,05,18,03,02,8.40
2014,05,18,03,03,8.40
2014,05,18,03,04,8.30
2014,05,18,03,05,8.30
2014,05,18,03,06,8.30
2014,05,18,03,07,8.30
2014,05,18,03,08,8.30
2014,05,18,03,09,8.30
2014,05,18,03,10,8.30
2014,05,18,03,11,8.30
2014,05,18,03,12,8.30
2014,05,18,03,13,8.30
2014,05,18,03,14,8.30
2014,05,18,03,15,8.30
2014,05,18,03,16,8.30
2014,05,18,03,17,8.30
2014,05,18,03,18,8.30
2014,05,18,03,19,8.30
2014,05,18,03,20,8.30
2014,05,18,03,22,8.30
2014,05,18,03,24,8.30
2014,05,18,03,25,8.30
2014,05,18,03,26,8.30
2014,05,18,03,27,8.30
2014,05,18,03,28,8.30
2014,05,18,03,29,8.30
2014,05,18,03,31,8.30
2014,05,18,03,32,8.30
2014,05,18,03,33,8.30
2014,05,18,03,34,8.30
2014,05,18,03,36,8.30
2014,05,18,03,38,8.30
2014,05,18,03,39,8.30
2014,05,18,03,41,8.30
2014,05,18,03,42,8.30
2014,05,18,03,44,8.30
2014,05,18,03,45,8.30
2014,05,18,03,46,8.30
2014,05,18,03,47,8.30
2014,05,18,03,48,8.30
2014,05,18,03,49,8.30
2014,05,18,03,50,8.30
2014,05,18,03,51,8.30
2014,05,18,03,52,8.30
2014,05,18,03,53,8.20
2014,05,18,03,55,8.20
2014,05,18,03,56,8.20
2014,05,18,03,57,8.20
2014,05,18,03,58,8.20
2014,05,18,03,59,8.20
2014,05,18,04,00,8.20
2014,05,18,04,02,8.20
2014,05,18,04,04,8.20
2014,05,18,04,05,8.20
2014,05,18,04,06,8.20
2014,05,18,04,07,8.20
2014,05,18,04,08,8.10
2014,05,18,04,09,8.10
2014,05,18,04,10,8.10
2014,05,18,04,12,8.10
2014,05,18,04,13,8.10
2014,05,18,04,14,8.10
2014,05,18,04,16,8.10
2014,05,18,04,18,8.10
2014,05,18,04,20,8.00
2014,05,18,04,21,8.00
2014,05,18,04,22,8.00
2014,05,18,04,24,8.00
2014,05,18,04,25,7.90
2014,05,18,04,26,7.90
2014,05,18,04,27,7.90
2014,05,18,04,29,7.90
2014,05,18,04,30,7.90
2014,05,18,04,31,7.90
2014,05,18,04,32,7.90
2014,05,18,04,33,7.90
2014,05,18,04,34,7.90
2014,05,18,04,35,7.90
2014,05,18,04,36,7.90
2014,05,18,04,37,7.80
2014,05,18,04,38,7.80
2014,05,18,04,39,7.80
2014,05,18,04,40,7.90
2014,05,18,04,42,7.80
2014,05,18,04,44,7.90
2014,05,18,04,45,7.90
2014,05,18,04,46,7.90
2014,05,18,04,47,7.90
2014,05,18,04,48,7.90
2014,05,18,04,49,7.90
2014,05,18,04,50,7.90
2014,05,18,04,51,7.80
2014,05,18,04,52,7.90
2014,05,18,04,53,7.90
2014,05,18,04,55,7.90
2014,05,18,04,56,7.90
2014,05,18,04,58,7.80
2014,05,18,05,00,7.90
2014,05,18,05,01,7.80
2014,05,18,05,03,7.90
2014,05,18,05,04,7.90
2014,05,18,05,05,7.90
2014,05,18,05,06,7.80
2014,05,18,05,07,7.90
2014,05,18,05,08,7.90
2014,05,18,05,09,7.90
2014,05,18,05,10,7.90
2014,05,18,05,12,7.90
2014,05,18,05,13,7.90
2014,05,18,05,15,7.90
2014,05,18,05,16,7.90
2014,05,18,05,17,7.90
2014,05,18,05,19,7.90
2014,05,18,05,20,7.90
2014,05,18,05,21,7.90
2014,05,18,05,22,7.90
2014,05,18,05,23,7.90
2014,05,18,05,24,7.90
2014,05,18,05,26,7.90
2014,05,18,05,27,7.90
2014,05,18,05,29,7.90
2014,05,18,05,31,7.90
2014,05,18,05,32,7.90
2014,05,18,05,34,7.90
2014,05,18,05,35,7.90
2014,05,18,05,36,7.90
2014,05,18,05,37,7.90
2014,05,18,05,38,7.90
2014,05,18,05,40,7.90
2014,05,18,05,41,7.90
2014,05,18,05,42,7.90
2014,05,18,05,43,7.90
2014,05,18,05,45,8.00
2014,05,18,05,46,8.00
2014,05,18,05,48,8.00
2014,05,18,05,49,8.00
2014,05,18,05,50,8.00
2014,05,18,05,52,8.00
2014,05,18,05,53,8.00
2014,05,18,05,54,8.00
2014,05,18,05,55,8.00
2014,05,18,05,57,8.00
2014,05,18,05,58,8.00
2014,05,18,05,59,7.90
2014,05,18,06,00,8.00
2014,05,18,06,01,8.00
2014,05,18,06,03,8.00
2014,05,18,06,04,8.00
2014,05,18,06,05,8.00
2014,05,18,06,06,8.00
2014,05,18,06,07,8.00
2014,05,18,06,08,8.00
2014,05,18,06,09,8.00
2014,05,18,06,10,8.00
2014,05,18,06,11,8.00
2014,05,18,06,13,8.00
2014,05,18,06,14,8.00
2014,05,18,06,15,8.00
2014,05,18,06,16,8.00
2014,05,18,06,18,8.00
2014,05,18,06,19,8.00
2014,05,18,06,21,8.00
2014,05,18,06,22,8.10
2014,05,18,06,23,8.10
2014,05,18,06,25,8.10
2014,05,18,06,26,8.10
2014,05,18,06,27,8.10
2014,05,18,06,29,8.20
2014,05,18,06,30,8.20
2014,05,18,06,32,8.30
2014,05,18,06,34,8.30
2014,05,18,06,35,8.30
2014,05,18,06,36,8.40
2014,05,18,06,37,8.40
2014,05,18,06,39,8.40
2014,05,18,06,40,8.50
2014,05,18,06,42,8.50
2014,05,18,06,43,8.50
2014,05,18,06,45,8.60
2014,05,18,06,46,8.60
2014,05,18,06,47,8.60
2014,05,18,06,49,8.60
2014,05,18,06,50,8.60
2014,05,18,06,52,8.70
2014,05,18,06,53,8.70
2014,05,18,06,54,8.70
2014,05,18,06,55,8.70
2014,05,18,06,56,8.70
2014,05,18,06,58,8.70
2014,05,18,06,59,8.70
2014,05,18,07,01,8.80
2014,05,18,07,02,8.70
2014,05,18,07,03,8.80
2014,05,18,07,04,8.80
2014,05,18,07,05,8.80
2014,05,18,07,06,8.80
2014,05,18,07,07,8.80
2014,05,18,07,08,8.80
2014,05,18,07,10,8.80
2014,05,18,07,11,8.80
2014,05,18,07,13,8.90
2014,05,18,07,15,8.90
2014,05,18,07,16,9.00
2014,05,18,07,18,9.00
2014,05,18,07,19,9.10
2014,05,18,07,20,9.10
2014,05,18,07,22,9.20
2014,05,18,07,24,9.20
2014,05,18,07,25,9.30
2014,05,18,07,27,9.40
2014,05,18,07,28,9.40
2014,05,18,07,30,9.50
2014,05,18,07,31,9.60
2014,05,18,07,32,9.60
2014,05,18,07,34,9.70
2014,05,18,07,36,9.80
2014,05,18,07,37,9.80
2014,05,18,07,38,9.80
2014,05,18,07,40,9.90
2014,05,18,07,41,9.90
2014,05,18,07,42,9.90
2014,05,18,07,43,10.00
2014,05,18,07,44,10.10
2014,05,18,07,46,10.10
2014,05,18,07,47,10.20
2014,05,18,07,49,10.20
2014,05,18,07,50,10.30
2014,05,18,07,51,10.30
2014,05,18,07,53,10.40
2014,05,18,07,54,10.50
2014,05,18,07,55,10.60
2014,05,18,07,56,10.60
2014,05,18,07,58,10.60
2014,05,18,07,59,10.70
2014,05,18,08,00,10.70
2014,05,18,08,02,10.80
2014,05,18,08,04,10.80
2014,05,18,08,05,10.90
2014,05,18,08,06,10.90
2014,05,18,08,07,11.00
2014,05,18,08,08,11.00
2014,05,18,08,09,11.10
2014,05,18,08,10,11.10
2014,05,18,08,11,11.20
2014,05,18,08,13,11.30
2014,05,18,08,14,11.30
2014,05,18,08,15,11.40
2014,05,18,08,16,11.40
2014,05,18,08,18,11.60
2014,05,18,08,19,11.70
2014,05,18,08,20,11.70
2014,05,18,08,21,11.80
2014,05,18,08,23,11.90
2014,05,18,08,25,12.20
2014,05,18,08,26,12.30
2014,05,18,08,27,12.40
2014,05,18,08,29,12.50
2014,05,18,08,30,12.40
2014,05,18,08,31,12.40
2014,05,18,08,33,12.30
2014,05,18,08,34,12.20
2014,05,18,08,36,12.20
2014,05,18,08,37,12.20
2014,05,18,08,39,12.20
2014,05,18,08,41,12.10
2014,05,18,08,43,12.00
2014,05,18,08,45,11.90
2014,05,18,08,47,12.00
2014,05,18,08,49,12.10
2014,05,18,08,50,12.10
2014,05,18,08,52,12.20
2014,05,18,08,54,12.30
2014,05,18,08,55,12.30
2014,05,18,08,57,12.40
2014,05,18,08,58,12.50
2014,05,18,08,59,12.50
2014,05,18,09,00,12.60
2014,05,18,09,02,12.70
2014,05,18,09,03,12.80
2014,05,18,09,04,12.80
2014,05,18,09,05,12.90
2014,05,18,09,06,12.90
2014,05,18,09,07,12.90
2014,05,18,09,08,13.00
2014,05,18,09,09,13.00
2014,05,18,09,10,13.10
2014,05,18,09,11,13.10
2014,05,18,09,13,13.10
2014,05,18,09,15,13.20
2014,05,18,09,16,13.20
2014,05,18,09,17,13.30
2014,05,18,09,18,13.30
2014,05,18,09,19,13.30
2014,05,18,09,20,13.40
2014,05,18,09,21,13.40
2014,05,18,09,23,13.50
2014,05,18,09,24,13.60
2014,05,18,09,26,13.70
2014,05,18,09,27,13.70
2014,05,18,09,28,13.60
2014,05,18,09,29,13.60
2014,05,18,09,30,13.60
2014,05,18,09,31,13.60
2014,05,18,09,32,13.60
2014,05,18,09,33,13.60
2014,05,18,09,35,13.70
2014,05,18,09,37,13.70
2014,05,18,09,38,13.70
2014,05,18,09,40,13.70
2014,05,18,09,42,13.70
2014,05,18,09,43,13.80
2014,05,18,09,44,13.80
2014,05,18,09,45,13.90
2014,05,18,09,46,14.00
2014,05,18,09,47,14.10
2014,05,18,09,48,14.20
2014,05,18,09,49,14.20
2014,05,18,09,51,14.30
2014,05,18,09,52,14.30
2014,05,18,09,54,14.40
2014,05,18,09,55,14.40
2014,05,18,09,56,14.40
2014,05,18,09,57,14.40
2014,05,18,09,58,14.40
2014,05,18,10,00,14.30
2014,05,18,10,01,14.30
2014,05,18,10,03,14.30
2014,05,18,10,04,14.30
2014,05,18,10,05,14.30
2014,05,18,10,06,14.40
2014,05,18,10,07,14.50
2014,05,18,10,08,14.60
2014,05,18,10,09,14.70
2014,05,18,10,10,14.70
2014,05,18,10,12,14.80
2014,05,18,10,13,14.80
2014,05,18,10,14,14.80
2014,05,18,10,15,14.90
2014,05,18,10,16,14.90
2014,05,18,10,18,15.10
2014,05,18,10,19,15.10
2014,05,18,10,20,15.10
2014,05,18,10,21,15.20
2014,05,18,10,23,15.30
2014,05,18,10,24,15.30
2014,05,18,10,25,15.30
2014,05,18,10,27,15.40
2014,05,18,10,28,15.40
2014,05,18,10,29,15.50
2014,05,18,10,30,15.50
2014,05,18,10,31,15.50
2014,05,18,10,32,15.50
2014,05,18,10,34,15.60
2014,05,18,10,35,15.60
2014,05,18,10,36,15.70
2014,05,18,10,37,15.80
2014,05,18,10,38,15.80
2014,05,18,10,39,15.80
2014,05,18,10,41,15.90
2014,05,18,10,43,15.90
2014,05,18,10,44,15.90
2014,05,18,10,45,15.90
2014,05,18,10,47,16.00
2014,05,18,10,48,16.10
2014,05,18,10,49,16.20
2014,05,18,10,50,16.20
2014,05,18,10,52,16.30
2014,05,18,10,54,16.50
2014,05,18,10,55,16.60
2014,05,18,10,56,16.70
2014,05,18,10,58,16.70
2014,05,18,10,59,16.70
2014,05,18,11,00,16.70
2014,05,18,11,01,16.80
2014,05,18,11,03,16.90
2014,05,18,11,04,17.10
2014,05,18,11,05,17.20
2014,05,18,11,06,17.30
2014,05,18,11,07,17.40
2014,05,18,11,08,17.40
2014,05,18,11,09,17.40
2014,05,18,11,11,17.40
2014,05,18,11,12,17.40
2014,05,18,11,13,17.40
2014,05,18,11,15,17.40
2014,05,18,11,16,17.40
2014,05,18,11,18,17.50
2014,05,18,11,20,17.70
2014,05,18,11,21,17.70
2014,05,18,11,22,17.80
2014,05,18,11,24,17.80
2014,05,18,11,25,17.80
2014,05,18,11,26,17.80
2014,05,18,11,27,17.90
2014,05,18,11,29,17.90
2014,05,18,11,30,17.90
2014,05,18,11,31,18.00
2014,05,18,11,33,18.20
2014,05,18,11,35,18.30
2014,05,18,11,36,18.30
2014,05,18,11,37,18.30
2014,05,18,11,39,18.30
2014,05,18,11,40,18.40
2014,05,18,11,41,18.50
2014,05,18,11,42,18.60
2014,05,18,11,44,18.70
2014,05,18,11,45,18.80
2014,05,18,11,46,18.80
2014,05,18,11,48,19.00
2014,05,18,11,49,19.00
2014,05,18,11,51,19.10
2014,05,18,11,52,19.20
2014,05,18,11,53,19.30
2014,05,18,11,54,19.30
2014,05,18,11,55,19.40
2014,05,18,11,56,19.60
2014,05,18,11,57,19.70
2014,05,18,11,59,19.80
2014,05,18,12,00,19.90
2014,05,18,12,01,19.90
2014,05,18,12,02,20.10
2014,05,18,12,03,20.10
2014,05,18,12,04,20.20
2014,05,18,12,05,20.30
2014,05,18,12,06,20.30
2014,05,18,12,07,20.40
2014,05,18,12,08,20.40
2014,05,18,12,09,20.50
2014,05,18,12,10,20.60
2014,05,18,12,11,20.60
2014,05,18,12,12,20.60
2014,05,18,12,13,20.50
2014,05,18,12,14,20.50
2014,05,18,12,15,20.40
2014,05,18,12,16,20.40
2014,05,18,12,17,20.40
2014,05,18,12,18,20.40
2014,05,18,12,19,20.30
2014,05,18,12,20,20.10
2014,05,18,12,21,19.90
2014,05,18,12,22,19.80
2014,05,18,12,23,19.70
2014,05,18,12,25,19.60
2014,05,18,12,27,19.40
2014,05,18,12,28,19.50
2014,05,18,12,30,19.50
2014,05,18,12,31,19.50
2014,05,18,12,33,19.70
2014,05,18,12,34,19.70
2014,05,18,12,35,19.70
2014,05,18,12,37,19.60
2014,05,18,12,38,19.60
2014,05,18,12,39,19.60
2014,05,18,12,42,19.50
2014,05,18,12,43,19.60
2014,05,18,12,44,19.60
2014,05,18,12,45,19.70
2014,05,18,12,47,19.70
2014,05,18,12,48,19.60
2014,05,18,12,50,19.50
2014,05,18,12,52,19.30
2014,05,18,12,53,19.30
2014,05,18,12,55,19.20
2014,05,18,12,56,19.10
2014,05,18,12,57,19.10
2014,05,18,12,58,19.20
2014,05,18,12,59,19.20
2014,05,18,13,01,19.30
2014,05,18,13,02,19.30
2014,05,18,13,03,19.30
2014,05,18,13,04,19.20
2014,05,18,13,05,19.20
2014,05,18,13,06,19.20
2014,05,18,13,07,19.10
2014,05,18,13,08,19.10
2014,05,18,13,09,19.10
2014,05,18,13,10,19.10
2014,05,18,13,11,19.20
2014,05,18,13,14,19.40
2014,05,18,13,15,19.50
2014,05,18,13,17,19.70
2014,05,18,13,19,19.70
2014,05,18,13,20,19.70
2014,05,18,13,21,19.70
2014,05,18,13,22,19.70
2014,05,18,13,23,19.70
2014,05,18,13,24,19.70
2014,05,18,13,26,19.80
2014,05,18,13,27,19.90
2014,05,18,13,28,19.90
2014,05,18,13,30,20.10
2014,05,18,13,31,20.10
2014,05,18,13,32,20.10
2014,05,18,13,33,20.10
2014,05,18,13,34,20.20
2014,05,18,13,35,20.10
2014,05,18,13,36,20.10
2014,05,18,13,38,20.20
2014,05,18,13,39,20.20
2014,05,18,13,40,20.20
2014,05,18,13,42,20.20
2014,05,18,13,43,20.20
2014,05,18,13,44,20.20
2014,05,18,13,46,20.20
2014,05,18,13,47,20.10
2014,05,18,13,49,20.00
2014,05,18,13,50,19.90
2014,05,18,13,51,19.90
2014,05,18,13,52,19.80
2014,05,18,13,54,19.60
2014,05,18,13,55,19.60
2014,05,18,13,56,19.60
2014,05,18,13,57,19.50
2014,05,18,13,58,19.50
2014,05,18,14,00,19.60
2014,05,18,14,01,19.60
2014,05,18,14,03,19.50
2014,05,18,14,04,19.50
2014,05,18,14,05,19.50
2014,05,18,14,06,19.40
2014,05,18,14,07,19.40
2014,05,18,14,08,19.30
2014,05,18,14,09,19.30
2014,05,18,14,11,19.20
2014,05,18,14,13,19.10
2014,05,18,14,14,19.10
2014,05,18,14,15,19.00
2014,05,18,14,17,18.90
2014,05,18,14,18,18.80
2014,05,18,14,20,18.80
2014,05,18,14,21,18.70
2014,05,18,14,22,18.70
2014,05,18,14,23,18.60
2014,05,18,14,24,18.50
2014,05,18,14,25,18.50
2014,05,18,14,27,18.40
2014,05,18,14,29,18.30
2014,05,18,14,30,18.30
2014,05,18,14,31,18.30
2014,05,18,14,32,18.30
2014,05,18,14,33,18.20
2014,05,18,14,34,18.20
2014,05,18,14,35,18.10
2014,05,18,14,36,18.10
2014,05,18,14,38,18.00
2014,05,18,14,39,18.00
2014,05,18,14,40,17.90
2014,05,18,14,42,17.90
2014,05,18,14,43,17.90
2014,05,18,14,45,17.80
2014,05,18,14,47,17.80
2014,05,18,14,49,17.80
2014,05,18,14,50,17.90
2014,05,18,14,51,17.90
2014,05,18,14,53,17.90
2014,05,18,14,54,17.90
2014,05,18,14,56,17.90
2014,05,18,14,57,17.90
2014,05,18,14,58,17.90
2014,05,18,14,59,18.00
2014,05,18,15,00,18.10
2014,05,18,15,01,18.10
2014,05,18,15,03,18.10
2014,05,18,15,04,18.10
2014,05,18,15,06,18.20
2014,05,18,15,07,18.20
2014,05,18,15,08,18.20
2014,05,18,15,09,18.20
2014,05,18,15,11,18.30
2014,05,18,15,12,18.30
2014,05,18,15,13,18.30
2014,05,18,15,15,18.40
2014,05,18,15,16,18.50
2014,05,18,15,17,18.50
2014,05,18,15,19,18.50
2014,05,18,15,20,18.50
2014,05,18,15,21,18.40
2014,05,18,15,23,18.20
2014,05,18,15,24,18.10
2014,05,18,15,26,17.80
2014,05,18,15,27,17.70
2014,05,18,15,29,17.40
2014,05,18,15,30,17.30
2014,05,18,15,31,17.20
2014,05,18,15,32,17.10
2014,05,18,15,34,16.90
2014,05,18,15,35,16.80
2014,05,18,15,36,16.80
2014,05,18,15,38,16.70
2014,05,18,15,39,16.60
2014,05,18,15,40,16.60
2014,05,18,15,41,16.60
2014,05,18,15,42,16.60
2014,05,18,15,44,16.50
2014,05,18,15,45,16.50
2014,05,18,15,47,16.60
2014,05,18,15,48,16.60
2014,05,18,15,49,16.60
2014,05,18,15,50,16.70
2014,05,18,15,51,16.70
2014,05,18,15,52,16.70
2014,05,18,15,53,16.70
2014,05,18,15,54,16.80
2014,05,18,15,55,16.80
2014,05,18,15,56,16.80
2014,05,18,15,57,16.90
2014,05,18,15,58,16.90
2014,05,18,15,59,16.90
2014,05,18,16,00,16.90
2014,05,18,16,01,16.90
2014,05,18,16,02,16.90
2014,05,18,16,04,16.90
2014,05,18,16,05,16.90
2014,05,18,16,06,16.90
2014,05,18,16,07,16.90
2014,05,18,16,08,16.90
2014,05,18,16,09,16.90
2014,05,18,16,10,16.90
2014,05,18,16,11,16.90
2014,05,18,16,13,16.90
2014,05,18,16,14,17.00
2014,05,18,16,15,17.10
2014,05,18,16,16,17.10
2014,05,18,16,17,17.10
2014,05,18,16,18,17.10
2014,05,18,16,19,17.20
2014,05,18,16,20,17.20
2014,05,18,16,22,17.30
2014,05,18,16,23,17.30
2014,05,18,16,24,17.30
2014,05,18,16,26,17.40
2014,05,18,16,27,17.40
2014,05,18,16,28,17.40
2014,05,18,16,30,17.40
2014,05,18,16,32,17.40
2014,05,18,16,33,17.40
2014,05,18,16,34,17.40
2014,05,18,16,35,17.40
2014,05,18,16,36,17.40
2014,05,18,16,38,17.50
2014,05,18,16,39,17.50
2014,05,18,16,40,17.50
2014,05,18,16,42,17.60
2014,05,18,16,43,17.60
2014,05,18,16,44,17.60
2014,05,18,16,45,17.60
2014,05,18,16,47,17.60
2014,05,18,16,48,17.60
2014,05,18,16,50,17.60
2014,05,18,16,51,17.60
2014,05,18,16,52,17.60
2014,05,18,16,54,17.50
2014,05,18,16,55,17.50
2014,05,18,16,56,17.50
2014,05,18,16,58,17.50
2014,05,18,16,59,17.40
2014,05,18,17,01,17.40
2014,05,18,17,02,17.40
2014,05,18,17,03,17.40
2014,05,18,17,04,17.40
2014,05,18,17,05,17.40
2014,05,18,17,06,17.40
2014,05,18,17,07,17.40
2014,05,18,17,08,17.40
2014,05,18,17,09,17.40
2014,05,18,17,10,17.40
2014,05,18,17,11,17.40
2014,05,18,17,12,17.40
2014,05,18,17,14,17.40
2014,05,18,17,16,17.40
2014,05,18,17,18,17.40
2014,05,18,17,19,17.40
2014,05,18,17,20,17.40
2014,05,18,17,21,17.40
2014,05,18,17,23,17.40
2014,05,18,17,25,17.30
2014,05,18,17,26,17.30
2014,05,18,17,27,17.30
2014,05,18,17,29,17.30
2014,05,18,17,31,17.20
2014,05,18,17,32,17.20
2014,05,18,17,34,17.10
2014,05,18,17,35,17.10
2014,05,18,17,37,17.00
2014,05,18,17,38,16.90
2014,05,18,17,39,16.90
2014,05,18,17,41,16.80
2014,05,18,17,42,16.80
2014,05,18,17,44,16.80
2014,05,18,17,45,16.80
2014,05,18,17,46,16.80
2014,05,18,17,48,16.70
2014,05,18,17,50,16.70
2014,05,18,17,51,16.60
2014,05,18,17,52,16.50
2014,05,18,17,54,16.40
2014,05,18,17,55,16.40
2014,05,18,17,56,16.40
2014,05,18,17,58,16.30
2014,05,18,17,59,16.30
2014,05,18,18,00,16.30
2014,05,18,18,02,16.30
2014,05,18,18,03,16.30
2014,05,18,18,04,16.20
2014,05,18,18,05,16.20
2014,05,18,18,06,16.20
2014,05,18,18,07,16.20
2014,05,18,18,08,16.20
2014,05,18,18,09,16.20
2014,05,18,18,10,16.20
2014,05,18,18,11,16.20
2014,05,18,18,12,16.30
2014,05,18,18,14,16.30
2014,05,18,18,15,16.30
2014,05,18,18,16,16.30
2014,05,18,18,18,16.40
2014,05,18,18,19,16.40
2014,05,18,18,21,16.50
2014,05,18,18,22,16.60
2014,05,18,18,23,16.60
2014,05,18,18,24,16.60
2014,05,18,18,25,16.60
2014,05,18,18,26,16.60
2014,05,18,18,27,16.70
2014,05,18,18,28,16.70
2014,05,18,18,30,16.70
2014,05,18,18,31,16.70
2014,05,18,18,32,16.70
2014,05,18,18,34,16.70
2014,05,18,18,35,16.80
2014,05,18,18,36,16.80
2014,05,18,18,38,16.80
2014,05,18,18,39,16.80
2014,05,18,18,40,16.80
2014,05,18,18,42,16.80
2014,05,18,18,43,16.80
2014,05,18,18,44,16.80
2014,05,18,18,46,16.80
2014,05,18,18,47,16.80
2014,05,18,18,48,16.80
2014,05,18,18,50,16.80
2014,05,18,18,51,16.80
2014,05,18,18,52,16.80
2014,05,18,18,53,16.80
2014,05,18,18,55,16.80
2014,05,18,18,57,16.80
2014,05,18,18,58,16.80
2014,05,18,18,59,16.80
2014,05,18,19,00,16.80
2014,05,18,19,02,16.80
2014,05,18,19,04,16.70
2014,05,18,19,05,16.70
2014,05,18,19,06,16.70
2014,05,18,19,07,16.60
2014,05,18,19,08,16.60
2014,05,18,19,09,16.60
2014,05,18,19,10,16.60
2014,05,18,19,11,16.60
2014,05,18,19,12,16.60
2014,05,18,19,13,16.50
2014,05,18,19,14,16.50
2014,05,18,19,15,16.50
2014,05,18,19,16,16.40
2014,05,18,19,18,16.40
2014,05,18,19,19,16.40
2014,05,18,19,20,16.40
2014,05,18,19,21,16.40
2014,05,18,19,22,16.30
2014,05,18,19,23,16.30
2014,05,18,19,24,16.30
2014,05,18,19,25,16.30
2014,05,18,19,27,16.20
2014,05,18,19,29,16.20
2014,05,18,19,30,16.20
2014,05,18,19,31,16.20
2014,05,18,19,33,16.20
2014,05,18,19,34,16.20
2014,05,18,19,35,16.20
2014,05,18,19,36,16.20
2014,05,18,19,38,16.20
2014,05,18,19,40,16.20
2014,05,18,19,41,16.20
2014,05,18,19,42,16.20
2014,05,18,19,44,16.20
2014,05,18,19,45,16.10
2014,05,18,19,46,16.10
2014,05,18,19,47,16.10
2014,05,18,19,48,16.10
2014,05,18,19,50,16.10
2014,05,18,19,52,16.10
2014,05,18,19,53,16.00
2014,05,18,19,55,16.00
2014,05,18,19,56,16.00
2014,05,18,19,57,16.00
2014,05,18,19,58,16.10
2014,05,18,19,59,16.00
2014,05,18,20,00,16.10
2014,05,18,20,02,16.00
2014,05,18,20,03,16.00
2014,05,18,20,04,16.00
2014,05,18,20,05,16.00
2014,05,18,20,06,16.00
2014,05,18,20,07,15.90
2014,05,18,20,08,15.90
2014,05,18,20,09,15.90
2014,05,18,20,11,15.80
2014,05,18,20,12,15.80
2014,05,18,20,14,15.80
2014,05,18,20,15,15.80
2014,05,18,20,16,15.70
2014,05,18,20,17,15.70
2014,05,18,20,18,15.70
2014,05,18,20,20,15.60
2014,05,18,20,21,15.60
2014,05,18,20,23,15.60
2014,05,18,20,24,15.60
2014,05,18,20,25,15.60
2014,05,18,20,26,15.60
2014,05,18,20,27,15.60
2014,05,18,20,28,15.60
2014,05,18,20,29,15.60
2014,05,18,20,30,15.60
2014,05,18,20,32,15.50
2014,05,18,20,33,15.50
2014,05,18,20,35,15.50
2014,05,18,20,36,15.50
2014,05,18,20,38,15.40
2014,05,18,20,40,15.40
2014,05,18,20,42,15.40
2014,05,18,20,44,15.40
2014,05,18,20,46,15.40
2014,05,18,20,47,15.40
2014,05,18,20,48,15.40
2014,05,18,20,49,15.30
2014,05,18,20,50,15.30
2014,05,18,20,51,15.30
2014,05,18,20,52,15.30
2014,05,18,20,54,15.30
2014,05,18,20,55,15.30
2014,05,18,20,56,15.30
2014,05,18,20,58,15.30
2014,05,18,20,59,15.30
2014,05,18,21,00,15.30
2014,05,18,21,01,15.20
2014,05,18,21,03,15.20
2014,05,18,21,04,15.20
2014,05,18,21,05,15.20
2014,05,18,21,06,15.20
2014,05,18,21,07,15.10
2014,05,18,21,08,15.10
2014,05,18,21,09,15.10
2014,05,18,21,10,15.10
2014,05,18,21,11,15.10
2014,05,18,21,12,15.00
2014,05,18,21,13,15.00
2014,05,18,21,14,15.00
2014,05,18,21,15,14.90
2014,05,18,21,17,14.90
2014,05,18,21,18,14.90
2014,05,18,21,19,14.90
2014,05,18,21,20,14.90
2014,05,18,21,22,14.90
2014,05,18,21,24,14.90
2014,05,18,21,25,14.80
2014,05,18,21,26,14.90
2014,05,18,21,27,14.80
2014,05,18,21,28,14.80
2014,05,18,21,29,14.80
2014,05,18,21,30,14.80
2014,05,18,21,32,14.80
2014,05,18,21,33,14.80
2014,05,18,21,34,14.80
2014,05,18,21,36,14.80
2014,05,18,21,38,14.80
2014,05,18,21,39,14.80
2014,05,18,21,40,14.80
2014,05,18,21,41,14.80
2014,05,18,21,43,14.80
2014,05,18,21,44,14.70
2014,05,18,21,45,14.70
2014,05,18,21,47,14.70
2014,05,18,21,49,14.70
2014,05,18,21,50,14.70
2014,05,18,21,52,14.60
2014,05,18,21,53,14.60
2014,05,18,21,54,14.60
2014,05,18,21,56,14.60
2014,05,18,21,57,14.60
2014,05,18,21,59,14.60
2014,05,18,22,01,14.60
2014,05,18,22,02,14.60
2014,05,18,22,03,14.60
2014,05,18,22,04,14.50
2014,05,18,22,05,14.50
2014,05,18,22,06,14.50
2014,05,18,22,07,14.50
2014,05,18,22,08,14.40
2014,05,18,22,09,14.40
2014,05,18,22,10,14.40
2014,05,18,22,11,14.40
2014,05,18,22,12,14.40
2014,05,18,22,13,14.40
2014,05,18,22,14,14.30
2014,05,18,22,15,14.30
2014,05,18,22,16,14.30
2014,05,18,22,18,14.30
2014,05,18,22,19,14.30
2014,05,18,22,20,14.30
2014,05,18,22,22,14.30
2014,05,18,22,23,14.30
2014,05,18,22,25,14.30